Dauntless Aviation
Greetings, Guest! To participate, [sign up for a free account] or [log in]
Airports North America United States Colorado
98CO

NCMC HELIPORT

GREELEY, CO, USA

Airport Info

Location

Latitude / Longitude: 40°24'53"N / 104°42'28"W
  40°24.9'N / 104°42.4667'W
  40.4150 / -104.7078
Elevation: 4882 ft. (estimated)
Variation: 12E (1985)
From city: 00 miles N of GREELEY, CO

Operations

Facility use: Private
Sectional chart: DENVER
Control tower: no
Boundary ARTCC: DENVER
FSS: DENVER [1-800-WX-BRIEF]
Segmented circle: no

Communications

Nearby radio navigation aids

VOR radial/distance VOR name Freq Var
GLL 233oT/8.9 GILL VORTAC 114.20 13E
DVV 353oT/31.5 MILE HIGH VORTAC 114.70 11E
BJC 33oT/36.1 JEFFCO VOR/DME 115.40 11E
DEN 357oT/36.2 DENVER VOR/DME 117.90 11E
 
NDB name Hdg/Dist Freq Var ID

Services

Runway Information

Helipad H1

Dimensions: 40 x 40 ft.
Surface: PORTLAND CEMENT CONCRETE,NO SPECIAL SURFACE TREATMENT
 

Additional Remarks

Instrument Procedures

No published instrument procedures available
Topographic chart at:
Satellite photo at:
Airport distance calculator
From:
Weather Reports

METAR

KGXY
4.2nm NE
KGXY 240215Z AUTO 22008KT 10SM CLR 28/08 A3018 RMK AO1
KFNL
14.3nm W
KFNL 240215Z AUTO 17011G16KT 10SM CLR 26/09 A3019 RMK AO1
KLMO
25.8nm SW
KLMO 240214Z AUTO 17006KT 10SM CLR 28/08 A3021 RMK AO2 T02770075
KEIK
28.6nm S
KEIK 240215Z AUTO 19013G17KT 10SM CLR 27/06 A3020 RMK AO2 T02700058
KBDU
33.3nm SW
KBDU 240217Z AUTO 00000KT 10SM CLR 26/07 A3021 RMK AO2
KDEN
35.0nm SE
KDEN 240153Z 19012KT 10SM FEW070 SCT120 BKN160 28/06 A3024 RMK AO2 PK WND 20027/0108 SLP154 T02780061 $

TAF

KDEN
35.0nm SE
KDEN 232329Z 2400/2506 20014G24KT P6SM VCTS SCT070CB SCT150 BKN200 TEMPO 2400/2401 VRB30G40KT FM240100 20011KT P6SM FEW120 BKN200 FM241500 VRB05KT P6SM SCT220 FM242000 03006KT P6SM SCT080 BKN160 PROB30 2421/2424 VRB25G35KT 5SM TSRA BKN070CB FM250200 27010KT P6SM SCT080 SCT200 FM250500 20010KT P6SM FEW100 SCT200
KBJC
35.3nm S
KBJC 240205Z 2402/2424 20014KT P6SM BKN120 FM240700 29007KT P6SM SCT200 FM241300 VRB05KT P6SM SCT200 FM242000 30014KT P6SM SCT070 BKN160 PROB30 2421/2424 VRB25G35KT 5SM TSRA BKN070CB
Safelog

 

Dauntless Aviation

© 2007-2014 Dauntless Aviation, all rights reserved
Information provided via PilotNav comes from a variety of official and unofficial data sources. As errors are possible, do not use PilotNav for primary flight planning purposes. Verify any information that you receive via PilotNav with current and canonical charts and other official documents. The material in this database is subject to database copyrights held by Dauntless Aviation and may not be copied without the express permission of Dauntless Aviation - licenses for use of part of all of this data are available for purchase; enquire via the Dauntless Aviation helpdesk. A number of mechanisms and markers exist in the database to protect against and identify infringement / copyright. Automated queries against this website are stictly prohibited, and all activity is logged and analyzed.